Regional Weather Roundup
Issued by NWS Northern Indiana

Home | Current Version | Previous Version | Graphics & Text | Print | Product List | Glossary On
Versions: 1 2 3 4 5 6 7 8 9 10 11 12 13 14 15 16 17 18 19 20 21 22 23 24 25 26 27 28 29 30 31 32 33 34 35 36 37 38 39 40 41 42 43 44 45 46 47 48 49 50
000
ASUS43 KIWX 041100
RWRIWX

KIWX WEATHER ROUNDUP
NATIONAL WEATHER SERVICE NORTHERN INDIANA
600 AM EST WED MAR 04 2015

NOTE: "FAIR" INDICATES FEW OR NO CLOUDS BELOW 12,000 FEET WITH NO
SIGNIFICANT WEATHER AND/OR OBSTRUCTIONS TO VISIBILITY.

* THESE STATIONS ARE NOT UNDER NWS QUALITY CONTROL. THEY ALSO MAY NOT
  REPORT WEATHER SUCH AS PRECIPITATION OR FOG.

INZ001>027-041200-
NORTHERN INDIANA

CITY           SKY/WX    TMP DP  RH WIND       PRES   REMARKS
GARY*          CLOUDY    30  19  64 W14       29.97R WCI  20
KNOX*            N/A     30  18  59 W7        29.93R WCI  23
SOUTH BEND     CLOUDY    31  25  78 NW9       29.92R WCI  23
GOSHEN         CLOUDY    29  24  82 W7        29.90R WCI  22
MONTICELLO*    MOCLDY    28  25  88 W6        29.94R WCI  22
WARSAW*        MOCLDY    28  27  93 W7        29.91R WCI  21
ANGOLA*        CLOUDY    30  21  69 W3        29.87R
FORT WAYNE     CLOUDY    31  24  75 W6        29.91R WCI  25
PERU/GRISSOM   CLOUDY    31  27  86 NW7       29.92R WCI  24

$$
INZ028>050-041200-
CENTRAL INDIANA

CITY           SKY/WX    TMP DP  RH WIND       PRES   REMARKS
LAFAYETTE      CLOUDY    30  25  81 W6        29.97R WCI  24
KOKOMO*        CLOUDY    30  28  93 NW9       29.93R WCI  22
MUNCIE*        CLOUDY    32  29  88 NW7       29.90R WCI  26
INDIANAPOLIS   CLOUDY    33  26  75 NW9       29.92R WCI  25

$$
MIZ043>046-050>051-056>058-064>065-071>073-077>080-041200-
SOUTHWEST LOWER MICHIGAN

CITY           SKY/WX    TMP DP  RH WIND       PRES   REMARKS
BATTLE CREEK   CLOUDY    31  23  72 W8        29.88R WCI  23
BENTON HARBOR  CLOUDY    30  24  78 NW10      29.92R WCI  21
COLDWATER*     CLOUDY    29  24  80 W7        29.88R WCI  22
HILLSDALE*     CLOUDY    30  25  81 W5        29.86R WCI  25
HOLLAND        CLOUDY    29  20  69 NW10      29.91R WCI  20
GRAND RAPIDS   PTCLDY    27  18  69 W13       29.88R WCI  16
KALAMAZOO      CLOUDY    30  23  75 W7        29.89R WCI  23
STURGIS*       CLOUDY    28  25  86 W5        29.89R WCI  23
THREE RIVERS*  CLOUDY    31  25  80 W7        29.89R WCI  24

$$
OHZ001>008-015>018-024>025-041200-
NORTHWEST OHIO

CITY           SKY/WX    TMP DP  RH WIND       PRES   REMARKS
DEFIANCE       CLOUDY    32  26  78 VRB3      29.90R
FINDLAY        CLOUDY    34  29  82 W6        29.87R WCI  29
TOLEDO EXPRESS CLOUDY    31  24  75 NW5       29.87R WCI  26
TOLEDO METCALF CLOUDY    33  24  69 W10       29.89R WCI  25
LIMA           CLOUDY    34  30  85 W9        29.87R WCI  27

$$
AND FOR LAKE MICHIGAN COASTAL AND OPEN LAKE BUOY OBSERVATIONS

STATION/POSITION TEMP    WIND        PRES    VSBY  WAVE
                 AIR SEA DIR/SP/G                  HT/PER
                 (F)     (DEG/KT/KT) (MB)    (MI)  (FT/S)
CALUMET HARBOR    28     290/ 10/ 14 1013.0R
MICHIGAN CITY     30     260/ 13/ 16   N/A
SAINT JOSEPH      31     260/  8/ 13 1013.5R

$$
&&



USA.gov is the U.S. government's official web portal to all federal, state and local government web resources and services.